Regional Weather Roundup
Issued by NWS Cleveland, OH

Home | Current Version | Previous Version | Text Only | Print | Product List | Glossary On
Versions: 1 2 3 4 5 6 7 8 9 10 11 12 13 14 15 16 17 18 19 20 21 22 23 24 25 26 27 28 29 30 31 32 33 34 35 36 37 38 39 40 41 42 43 44 45 46 47 48 49 50
000
ASUS41 KCLE 061210
RWRCLE
OHIO REGIONAL WEATHER ROUNDUP
NATIONAL WEATHER SERVICE CLEVELAND, OH
700 AM EST FRI MAR 06 2015

NOTE: "FAIR" INDICATES FEW OR NO CLOUDS BELOW 12,000 FEET WITH NO
SIGNIFICANT WEATHER AND/OR OBSTRUCTIONS TO VISIBILITY.

OHZ001>008-015>018-024>027-034-035-043-044-061300-
   NORTHWEST OHIO

CITY           SKY/WX    TMP DP  RH WIND       PRES   REMARKS
DEFIANCE       PTCLDY     0  -5  79 S3        30.51F
FINDLAY        FAIR       4   0  83 S5        30.50F WCI  -5
TOLEDO EXPRESS PTCLDY    -2  -6  83 CALM      30.51R
TOLEDO EXEC    MOCLDY     3  -2  79 S3        30.52F
LIMA           PTCLDY     6   1  80 S6        30.49F WCI  -4
$$

OHZ009>014-019>023-028>033-038-089-061300-
   NORTHEAST OHIO

CITY           SKY/WX    TMP DP  RH WIND       PRES   REMARKS
CLE-HOPKINS    PTCLDY     5  -1  76 S10       30.54F WCI -10
CLE-LAKEFRONT  PTCLDY     8   1  73 S12       30.52F WCI  -7
CUY CO. ARPT   CLEAR      7   3  85 S10       30.51  WCI  -8
LORAIN-ELYRIA  PTCLDY     1  -4  79 S7        30.51F WCI -12
ASHTABULA      MOCLDY    -4 -10  75 CALM      30.51S
AKRON-CANTON   PTCLDY     2  -3  80 SW6       30.49S WCI  -9
WOOSTER        PTCLDY    -5  -9  83 CALM      30.50F
MANSFIELD      PTCLDY     3  -3  76 S5        30.46F WCI  -6
YOUNGSTOWN     FAIR      -1  -6  79 S5        30.49R WCI -11
$$

OHZ042-051>053-060>062-070>072-077>081-061300-
  SOUTHWEST OHIO

CITY           SKY/WX    TMP DP  RH WIND       PRES   REMARKS
CINC-COVINGTON MOCLDY     3  -2  79 CALM      30.53F FOG
CINC-LUNKEN    FOG        6   5  95 CALM      30.59F VSB 1/4
HAMILTON       MOCLDY     1  -4  79 CALM      30.57S
DAYTON         PTCLDY     8   2  76 CALM      30.51F
WRIGHT-PAT AFB PTCLDY     6   2  84 CALM      30.52F
DAYTON GENERAL FAIR       6   2  83 CALM      30.51F
WILMINGTON     PTCLDY    -3  -7  82 CALM      30.51S
$$

OHZ036-037-039>041-045>050-054>059-063>069-073>076-082>088-061300-
  CENTRAL AND SOUTHEAST OHIO

CITY           SKY/WX    TMP DP  RH WIND       PRES   REMARKS
COLUMBUS       PTCLDY     5   1  83 CALM      30.53S
OSU AIRPORT    PTCLDY     6   2  83 S5        30.52S WCI  -3
BOLTON FIELD   NOT AVBL
RICKENBACK AFB PTCLDY     1  -3  85 CALM      30.54S
NEWARK         MOCLDY    -3  -7  82 CALM      30.52F
MARION         PTCLDY     0  -5  79 S5        30.51S HAZE    WCI -10
LANCASTER      PTCLDY    -1  -5  82 CALM      30.53F FOG
ZANESVILLE     MOCLDY    -5 -10  79 SE3       30.54F
NEW PHILLY     MOCLDY     2  -4  76 SE3       30.55S
$$



USA.gov is the U.S. government's official web portal to all federal, state and local government web resources and services.